Eureka, Nunavut

1:45 PM CDT on July 26, 2017 (GMT -0500)
Eureka

Weather History for CWEU - November, 2011

Change the Weather History Date:

Monday, November 21, 2011

  Actual Average Record
Temperature  
Mean Temperature -20 °F -  
Max Temperature -18 °F -22 °F 8 °F (1996)
Min Temperature -23 °F -36 °F -38 °F (2002)
Degree Days  
Heating Degree Days 86    
Moisture  
Dew Point -30 °F    
Average Humidity 59    
Maximum Humidity 69    
Minimum Humidity 43    
Precipitation  
Precipitation 0.00 in 0.00 in - ()
Sea Level Pressure  
Sea Level Pressure 29.27 in    
Wind  
Wind Speed 2 mph ()    
Max Wind Speed 6 mph    
Max Gust Speed -    
Visibility 15.0 miles    
Events Snow    
Averages and records for this station are not official NWS values.
T = Trace of Precipitation, MM = Missing Value Source: Averaged Metar Reports

Daily Weather History Graph

Daily Weather History Graph

Search for Another Location

Airport or City:

Trip Planner

Search our weather history database for the weather conditions in past years. The results will help you decide how hot, cold, wet, or windy it might be!

Date:

Astronomy

Dec. 31, 1969 Rise Set
Actual Time Sun does not set Sun does not set
Civil Twilight Sun does not set Sun does not set
Nautical Twilight 8:54 AM CST 2:02 PM CST
Astronomical Twilight 6:06 AM CST 4:50 PM CST
Moon 4:51 AM CST (11/21) 10:30 AM CST (11/21)
Length of Visible Light 0h 00m
Length of Day
0h 00m
Waning Crescent, 17% of the Moon is Illuminated
Nov 21
Waning Crescent
Nov 25
New
Dec 2
First Quarter
Dec 10
Full
Dec 17
Last Quarter

Hourly Weather History & Observations

Time (CST) Temp. Windchill Dew Point Humidity Pressure Visibility Wind Dir Wind Speed Gust Speed Precip Events Conditions
12:00 AM -18 °F - -28 °F 43% 29.24 in 15 mi Calm Calm - -  
12:00 AM -18.4 °F - -27.4 °F 63% 29.24 in 15.0 mi Calm Calm - N/A   Clear
1:00 AM -18.4 °F - -27.4 °F 63% 29.24 in 15.0 mi East 2.3 mph - N/A   Clear
1:15 AM - - - N/A% - 15.0 mi Calm Calm - N/A   Clear
3:00 AM -20.2 °F - -27.4 °F 69% 29.24 in 15.0 mi East 2.3 mph - N/A   Clear
4:00 AM -20.2 °F - -29.2 °F 63% 29.24 in 15.0 mi East 2.3 mph - N/A   Clear
5:00 AM -20.2 °F - -31.0 °F 58% 29.24 in 15.0 mi ENE 2.3 mph - N/A   Clear
6:00 AM -22 °F - -29 °F 52% 29.24 in 15 mi East 2.3 mph - - Snow Snow
6:00 AM -22.0 °F - -29.2 °F 69% 29.24 in 15.0 mi East 2.3 mph - N/A   Clear
7:00 AM -20.2 °F - -31.0 °F 58% 29.24 in 15.0 mi ESE 2.3 mph - N/A   Clear
8:00 AM -20.2 °F -33.5 °F -29.2 °F 63% 29.24 in 15.0 mi ESE 4.6 mph - N/A   Clear
9:00 AM -22.0 °F - -31.0 °F 63% 29.24 in 15.0 mi East 2.3 mph - N/A   Clear
10:00 AM -20.2 °F -30.9 °F -29.2 °F 63% 29.24 in 15.0 mi ESE 3.5 mph - N/A   Clear
11:00 AM -20.2 °F - -29.2 °F 63% 29.25 in 15.0 mi ESE 2.3 mph - N/A   Partly Cloudy
12:00 PM -21 °F - -30 °F 47% 29.25 in 15 mi East 4.6 mph - - Snow Snow
1:00 PM -20.2 °F - -31.0 °F 58% 29.27 in 15.0 mi Calm Calm - N/A   Partly Cloudy
3:00 PM -22.0 °F - -32.8 °F 57% 29.29 in 15.0 mi ENE 2.3 mph - N/A   Clear
4:00 PM -22.0 °F -37.7 °F -32.8 °F 57% 29.30 in 15.0 mi SE 5.8 mph - N/A   Clear
5:00 PM -20.2 °F - -29.2 °F 63% 29.30 in 15.0 mi East 2.3 mph - N/A   Clear
6:00 PM -23 °F - -32 °F 43% 29.31 in 15 mi SE 2.3 mph - - Snow Snow
6:00 PM -23.8 °F - -32.8 °F 63% 29.31 in 15.0 mi Calm Calm - N/A   Clear
7:00 PM -22.0 °F -33.0 °F -31.0 °F 63% 29.32 in 15.0 mi East 3.5 mph - N/A   Clear
8:00 PM -22.0 °F - -31.0 °F 63% 29.33 in 15.0 mi Calm Calm - N/A   Clear
9:00 PM -22.0 °F - -31.0 °F 63% 29.34 in 15.0 mi Calm Calm - N/A   Clear